星链-5054 (STARLINK-5054 )

导读

STARLINK-5054是美国太空探索技术公司(SpaceX)星链项目的卫星,于2022年9月24日发射。作为低轨卫星互联网星座的一员,它运行在近地轨道,采用先进通信技术与霍尔推进系统,旨在为全球提供高速低延迟宽带互联网服务,尤其侧重覆盖偏远区域,截至当前仍在轨运行,助力扩展星链网络覆盖与稳定性。

Basic Information
目录编号:
53906
目录名称:
STARLINK-5054
国际标识:
2022-119W
轨道中心:
EARTH
卫星名称:
星链-5054
卫星全名:
星链-5054 (STARLINK-5054 )
卫星状态:
在轨 (已飞行1442 天)
发射日期:
2022-09-24 UTC
国别 :
美国 (US)
星等 :
--
Orbit Information
数据来源 国际轨道数据 AOE轨道数据
星历时间 2026-09-05T13:32:58+0800
8小时前
查看轨道信息
2026-08-30T23:00:00+0800
5天前
查看轨道信息
半长轴 6917.909km 6917.889km
偏心率 0.0001266 0.000145
轨道倾角 53.159° 53.160°
近地点辐角 79.208° 87.147°
升交点赤经 227.272° 252.473°
平近点角 280.905° 44.378°
近地点 538.896km 538.748km
远地点 540.648km 540.756km
周期 95.438分钟 95.438分钟
每日圈数 15.088307 15.088375
Detailed Information
固有亮度:
5
最大亮度:
2.5
卫星平台:
Starlink v1.5
覆盖范围:
全球
运营商:
太空探索技术公司
运营商所在国:
美国
制造商(研发单位):
太空探索技术公司
制造商所在国:
美国
使用方式:
暂无
Satellite Introduction
星链(Starlink)计划是由太空探索技术公司(SpaceX)提出的一个巨型低轨卫星互联网星座项目,计划在2019年至2024年间在太空搭建由约1.2万颗卫星组成的“星链”网络,其中1584颗将部署在地球上空550千米处的近地轨道,并从2020年开始工作。该卫星仍在工作。
2D Orbit Map
3D Orbit Map
Orbit Altitude Analysis Chart
Orbit Inclination Analysis Chart
Orbit Comprehensive Analysis Chart
View Comprehensive Chart
Conjunction Data List
Event ID Objects TCA Miss Dist (km) Collision Risk Probability Collision Risk Index (CRI) Action
CDM_260908-044600-036905-390621
2026-09-08T
04:46:03+0000
2.443 km
极远距离
1.732354E-6 低风险 0.4
CDM_260907-051005-390606-876223
2026-09-07T
05:10:06+0000
2.644 km
极远距离
1.588118E-6 低风险 0.39